Stations météo

réclame
Mon MeteoGroup
Helgoland, Allemagne (10015): Température de l'air & dewpoint: 13.11.2017 19:00:00 - 19.11.2017 19:00:00 (CET)Helgoland, Allemagne (10015): Température de l'air 5cm: 13.11.2017 19:00:00 - 19.11.2017 19:00:00 (CET)Helgoland, Allemagne (10015): Vitesse du vent & gusts: 13.11.2017 19:00:00 - 19.11.2017 19:00:00 (CET)Helgoland, Allemagne (10015): Direction du vent: 13.11.2017 19:00:00 - 19.11.2017 19:00:00 (CET)Helgoland, Allemagne (10015): reduced air pressure: 13.11.2017 19:00:00 - 19.11.2017 19:00:00 (CET)Helgoland, Allemagne (10015): visibility: 13.11.2017 19:00:00 - 19.11.2017 19:00:00 (CET)Helgoland, Allemagne (10015): Ensoleillement: 13.11.2017 19:00:00 - 19.11.2017 19:00:00 (CET)Helgoland, Allemagne (10015): Quantités de précipitations: 13.11.2017 19:00:00 - 19.11.2017 19:00:00 (CET)
Date & Time tt [°C] td [°C] tt 5cm [°C] ff [km/h] ff [knt] fx [km/h] fx [knt] dd ppp [hPa] vv [km] sd [min] rr [mm]
19.11.2017 19:00:00 - - - - - - - - - - - -
19.11.2017 18:00:00 6,0 2,8 3,4 45 25 81 44 NNW 1011,2 1,8 0 0,4
19.11.2017 17:00:00 8,8 3,3 6,8 58 32 74 40 NNW 1010,4 52 0 0,7
19.11.2017 16:00:00 8,7 3,9 7,3 41 22 71 39 NW 1009,8 37 2 0,3
19.11.2017 15:00:00 9,2 4,5 8,9 51 28 83 45 NW 1009,4 18 20 0,3
19.11.2017 14:00:00 9,2 4,0 8,1 49 26 86 47 NW 1008,7 15 29 0,1
19.11.2017 13:00:00 9,4 3,8 9,0 58 31 77 42 NW 1008,3 10 31 0,0
19.11.2017 12:00:00 8,3 3,1 7,5 53 29 82 44 NW 1008,0 12 0 0,2
19.11.2017 11:00:00 7,4 4,7 6,4 46 25 90 48 NNW 1008,1 18 2 0,4
19.11.2017 10:00:00 9,5 4,5 8,0 56 30 85 46 NW 1006,5 14 2 0,3
19.11.2017 09:00:00 9,8 4,1 8,5 60 32 81 44 NW 1005,9 18 0 0,0
19.11.2017 08:00:00 9,5 4,0 7,8 61 33 81 44 NW 1005,3 22 0 0,0
19.11.2017 07:00:00 9,1 5,0 7,3 56 30 104 56 NW 1004,9 15 0 0,2
19.11.2017 06:00:00 9,1 4,4 7,5 59 32 86 46 WNW 1005,1 16 0 0,9
19.11.2017 05:00:00 9,1 3,3 7,8 56 31 78 42 WNW 1005,4 22 0 0,6
19.11.2017 04:00:00 8,0 3,6 5,3 61 33 83 45 WNW 1005,6 2,9 0 0,0
19.11.2017 03:00:00 8,9 3,1 7,1 53 28 91 49 NW 1006,2 21 0 0,1
19.11.2017 02:00:00 9,1 4,2 7,5 52 28 83 45 WNW 1006,4 18 0 0,5
19.11.2017 01:00:00 8,6 3,8 7,3 53 29 72 39 WNW 1006,7 18 0 0,0
19.11.2017 00:00:00 8,7 4,4 7,5 56 30 78 42 WNW 1007,3 16 0 0,1
18.11.2017 23:00:00 8,6 3,5 7,1 55 30 77 42 WNW 1007,7 22 0 0,0
18.11.2017 22:00:00 8,3 3,3 6,2 52 28 75 40 WNW 1008,4 7 0 0,6
18.11.2017 21:00:00 8,6 3,8 7,2 48 26 76 41 WNW 1008,6 18 0 0,1
18.11.2017 20:00:00 7,6 3,9 5,8 52 28 79 42 W 1009,0 12 0 0,5
18.11.2017 19:00:00 8,0 3,5 6,7 51 27 70 38 WNW 1009,2 16 0 0,3
18.11.2017 18:00:00 8,8 2,1 7,5 50 27 64 35 WNW 1009,1 20 0 0,0
18.11.2017 17:00:00 8,5 2,2 7,1 49 27 67 36 WNW 1009,4 25 0 0,0
18.11.2017 16:00:00 7,5 2,7 6,3 50 27 68 37 NW 1009,4 28 3 0,0
18.11.2017 15:00:00 8,6 2,8 7,1 44 24 64 35 NW 1009,3 30 24 0,0
18.11.2017 14:00:00 7,7 2,6 6,6 49 27 76 41 NW 1009,3 20 17 0,0
18.11.2017 13:00:00 8,3 2,0 8,3 43 23 71 39 NW 1009,1 16 19 0,1
18.11.2017 12:00:00 7,4 2,8 5,5 54 29 72 39 WNW 1009,2 5 0 0,3
18.11.2017 11:00:00 6,5 3,6 5,7 45 24 71 38 NW 1009,8 23 0 1,2
18.11.2017 10:00:00 6,3 3,7 5,5 39 21 96 52 NW 1010,0 6 0 4,6
18.11.2017 09:00:00 6,8 4,2 5,2 58 31 90 49 W 1009,9 0,8 0 0,1
18.11.2017 08:00:00 9,8 5,1 8,6 56 30 76 41 W 1010,0 16 0 1,1
18.11.2017 07:00:00 8,6 7,2 7,5 55 30 70 38 W 1011,2 0,4 0 0,4
18.11.2017 06:00:00 8,9 5,4 8,0 54 29 84 46 W 1012,6 17 0 0,0
18.11.2017 05:00:00 9,9 5,0 8,8 56 30 75 41 W 1013,4 25 0 0,0
18.11.2017 04:00:00 9,8 5,6 8,2 51 28 65 35 W 1014,6 25 0 0,3
18.11.2017 03:00:00 9,0 4,2 7,0 50 27 67 36 W 1016,1 6 0 0,0
18.11.2017 02:00:00 10,0 3,4 8,8 46 25 59 32 W 1016,9 40 0 0,0
18.11.2017 01:00:00 9,8 3,7 8,6 45 25 59 32 W 1017,8 33 0 0,0
18.11.2017 00:00:00 9,9 4,5 9,1 41 22 58 31 W 1018,6 28 0 0,1
17.11.2017 23:00:00 9,6 5,1 7,2 39 21 53 28 W 1019,3 18 0 0,0
17.11.2017 22:00:00 9,6 4,5 8,4 41 22 54 29 W 1019,9 37 0 0,0
17.11.2017 21:00:00 9,1 4,0 8,1 34 19 53 29 WSW 1020,5 45 0 0,0
17.11.2017 20:00:00 9,9 3,8 9,0 30 16 51 28 W 1021,1 44 0 0,0
17.11.2017 19:00:00 9,7 3,5 8,4 39 21 53 29 WNW 1021,6 43 0 0,0
17.11.2017 18:00:00 9,0 4,2 6,7 29 15 58 32 W 1022,1 53 0 0,1
17.11.2017 17:00:00 9,0 2,8 6,6 36 19 55 30 W 1022,6 23 0 0,0
17.11.2017 16:00:00 9,6 3,8 8,4 34 18 51 28 WSW 1022,8 54 10 0,1
17.11.2017 15:00:00 9,1 4,2 7,6 27 15 52 28 WNW 1023,2 38 29 0,0
17.11.2017 14:00:00 9,7 3,1 9,5 29 15 47 26 W 1023,8 27 22 0,0
17.11.2017 13:00:00 10,2 3,7 11,3 33 18 42 23 W 1024,2 11 43 0,0
17.11.2017 12:00:00 10,1 2,3 10,7 35 19 41 22 W 1024,5 13 50 0,0
17.11.2017 11:00:00 9,9 2,0 8,7 32 17 50 27 W 1024,6 21 14 0,0
17.11.2017 10:00:00 9,3 4,2 8,5 21 12 50 27 WSW 1024,7 26 22 0,1
17.11.2017 09:00:00 9,8 2,3 8,1 25 13 36 20 W 1024,3 32 0 0,0
17.11.2017 08:00:00 9,3 2,1 6,8 27 15 48 26 WNW 1024,1 47 0 0,1
17.11.2017 07:00:00 9,3 2,4 7,3 24 13 37 20 WNW 1023,8 60 0 0,0
17.11.2017 06:00:00 9,3 -0,1 6,6 25 14 43 23 NW 1023,7 67 0 0,0
17.11.2017 05:00:00 9,5 1,5 7,7 24 13 38 20 NW 1023,3 45 0 0,0
17.11.2017 04:00:00 9,2 1,0 7,0 29 16 41 22 NW 1023,0 51 0 0,0
17.11.2017 03:00:00 9,3 0,2 7,1 25 14 40 21 NW 1022,7 56 0 0,0
17.11.2017 02:00:00 9,0 2,9 6,5 22 12 42 23 NW 1022,2 40 0 0,0
17.11.2017 01:00:00 9,4 0,5 7,1 34 18 44 24 NW 1021,8 45 0 0,0
17.11.2017 00:00:00 9,5 2,7 7,4 31 17 49 26 NW 1021,3 39 0 0,0
16.11.2017 23:00:00 9,7 3,0 7,9 29 16 47 26 NW 1020,6 42 0 0,0
16.11.2017 22:00:00 10,3 5,4 8,9 34 18 45 25 NW 1020,0 38 0 0,0
16.11.2017 21:00:00 9,9 7,2 8,7 37 20 51 28 NW 1019,0 22 0 0,7
16.11.2017 20:00:00 9,8 8,5 9,3 40 22 54 29 W 1018,2 2,8 0 0,0
16.11.2017 19:00:00 11,0 9,8 10,4 38 21 54 29 WSW 1017,7 5 0 0,0
16.11.2017 18:00:00 10,8 9,6 10,2 42 23 57 31 SW 1017,6 7 0 0,3
16.11.2017 17:00:00 10,7 9,3 10,3 41 22 52 28 SW 1018,1 8 0 0,0
16.11.2017 16:00:00 10,5 9,0 10,0 39 21 49 26 SW 1018,3 10 0 0,0
16.11.2017 15:00:00 10,3 8,9 10,1 42 23 50 27 SW 1018,6 7 0 0,0
16.11.2017 14:00:00 10,4 9,3 10,2 41 22 49 27 SW 1019,1 7 0 0,0
16.11.2017 13:00:00 10,4 9,1 10,2 38 21 48 26 SW 1019,6 8 0 0,1
16.11.2017 12:00:00 10,2 9,0 9,8 38 21 46 25 SW 1020,2 7 0 0,0
16.11.2017 11:00:00 10,0 9,2 9,8 39 21 46 25 SSW 1020,4 4,1 0 0,7
16.11.2017 10:00:00 9,9 9,2 9,6 40 21 46 25 SSW 1020,8 5 0 0,3
16.11.2017 09:00:00 9,8 8,9 9,6 32 18 39 21 SSW 1020,8 5 0 0,0
16.11.2017 08:00:00 9,7 8,9 9,4 33 18 39 21 SSW 1020,7 5 0 0,0
16.11.2017 07:00:00 9,9 8,9 9,6 31 17 40 22 SSW 1020,7 9 0 0,0
16.11.2017 06:00:00 9,7 8,9 9,4 31 17 37 20 SSW 1020,9 7 0 0,1
16.11.2017 05:00:00 9,7 9,1 9,4 32 17 40 21 S 1021,5 2,9 0 0,5
16.11.2017 04:00:00 9,6 8,7 9,5 28 15 33 18 S 1022,1 6 0 0,0
16.11.2017 03:00:00 9,4 8,6 9,2 27 15 33 18 S 1022,6 4,1 0 0,0
16.11.2017 02:00:00 9,9 9,0 9,6 23 12 28 15 S 1022,7 4,1 0 0,0
16.11.2017 01:00:00 9,9 9,1 9,6 20 11 26 14 SSW 1023,4 8 0 0,0
16.11.2017 00:00:00 10,0 9,2 9,6 18 10 25 13 SSE 1023,7 6 0 0,0
15.11.2017 23:00:00 10,5 7,2 9,9 18 10 21 11 S 1024,0 48 0 0,0
15.11.2017 22:00:00 10,3 7,0 9,6 10 6 15 8 S 1024,3 47 0 0,0
15.11.2017 21:00:00 10,3 6,4 9,3 10 5 12 7 S 1024,4 49 0 0,0
15.11.2017 20:00:00 10,1 5,7 8,1 4 2 7 4 NW 1024,5 57 0 0,0
15.11.2017 19:00:00 10,2 6,6 8,4 5 3 9 5 ENE 1024,6 53 0 0,0
15.11.2017 18:00:00 10,0 5,3 7,5 8 4 11 6 NW 1024,2 66 0 0,0
15.11.2017 17:00:00 10,0 5,5 6,7 9 5 13 7 NW 1024,1 61 0 0,0
15.11.2017 16:00:00 10,7 5,9 9,1 13 7 19 10 NW 1024,1 48 15 0,0
15.11.2017 15:00:00 11,2 6,3 12,2 15 8 23 12 NW 1023,7 52 51 0,0
15.11.2017 14:00:00 11,3 5,7 11,6 21 11 28 15 NW 1023,6 41 8 0,0
15.11.2017 13:00:00 11,4 6,4 12,0 23 12 30 16 NW 1023,6 24 26 0,0
15.11.2017 12:00:00 11,7 7,3 13,1 23 12 28 15 W 1023,3 36 60 0,0
15.11.2017 11:00:00 11,3 6,5 12,1 19 11 27 14 WNW 1023,1 29 59 0,0
15.11.2017 10:00:00 10,8 7,8 10,2 19 11 29 16 NW 1022,6 35 2 0,0
15.11.2017 09:00:00 10,8 8,3 9,3 21 11 31 17 NW 1022,0 43 0 0,0
15.11.2017 08:00:00 11,1 9,2 10,3 26 14 34 19 W 1021,4 44 0 0,0
15.11.2017 07:00:00 11,1 9,2 10,4 20 11 26 14 W 1021,0 50 0 0,0
15.11.2017 06:00:00 10,8 9,2 9,3 18 10 23 13 W 1020,5 70 0 0,0
15.11.2017 05:00:00 10,1 9,0 9,0 11 6 14 8 W 1020,4 54 0 0,0
15.11.2017 04:00:00 9,7 9,3 7,1 6 3 27 15 W 1020,3 53 0 2,1
15.11.2017 03:00:00 10,1 9,7 9,7 18 10 31 17 SSW 1020,4 1,6 0 0,7
15.11.2017 02:00:00 10,5 9,6 9,9 23 13 27 15 SSW 1020,8 2,9 0 0,2
15.11.2017 01:00:00 11,0 9,3 10,2 17 9 25 13 SW 1021,0 21 0 0,0
15.11.2017 00:00:00 11,2 7,5 9,7 16 9 23 13 WSW 1020,8 33 0 0,0
14.11.2017 23:00:00 10,8 7,1 9,0 16 9 22 12 W 1020,8 30 0 0,0
14.11.2017 22:00:00 10,7 7,0 8,3 16 9 24 13 WNW 1020,7 29 0 0,0
14.11.2017 21:00:00 10,9 7,5 8,9 19 10 25 13 W 1020,5 19 0 0,0
14.11.2017 20:00:00 10,8 7,4 8,5 21 11 27 14 WNW 1020,1 27 0 0,0
14.11.2017 19:00:00 10,8 7,7 8,7 21 11 29 16 WNW 1019,6 14 0 0,0
14.11.2017 18:00:00 10,9 7,7 8,8 23 12 34 18 WNW 1019,0 15 0 0,0
14.11.2017 17:00:00 10,9 7,4 8,9 24 13 34 18 WNW 1018,6 17 0 0,0
14.11.2017 16:00:00 10,9 7,7 9,3 26 14 34 18 NW 1017,8 19 18 0,0
14.11.2017 15:00:00 11,1 7,9 9,9 22 12 48 26 NW 1017,2 24 0 0,6
14.11.2017 14:00:00 10,7 9,5 10,4 38 21 49 26 WNW 1016,7 6 0 0,3
14.11.2017 13:00:00 10,7 10,2 10,6 42 23 63 34 W 1016,1 5 0 1,3
14.11.2017 12:00:00 9,8 9,4 9,5 45 24 66 35 WSW 1015,9 3,0 0 0,5
14.11.2017 11:00:00 9,0 7,5 8,4 51 28 67 36 WSW 1016,4 3,9 0 0,0
14.11.2017 10:00:00 9,2 5,3 8,8 49 26 64 35 WSW 1016,6 21 0 0,0
14.11.2017 09:00:00 9,2 5,6 8,7 47 26 66 36 WSW 1016,7 21 0 0,0
14.11.2017 08:00:00 9,3 5,5 8,9 46 25 59 32 WSW 1016,8 22 0 0,0
14.11.2017 07:00:00 9,5 2,7 8,7 41 22 60 32 W 1017,2 39 0 0,0
14.11.2017 06:00:00 9,5 4,1 8,5 39 21 57 31 WSW 1017,2 45 0 0,0
14.11.2017 05:00:00 8,9 4,3 8,3 35 19 44 24 SW 1017,7 48 0 0,0
14.11.2017 04:00:00 8,6 4,1 7,7 27 15 38 20 WSW 1018,3 50 0 0,0
14.11.2017 03:00:00 8,5 3,3 7,1 18 10 29 16 WSW 1018,9 59 0 0,0
14.11.2017 02:00:00 8,8 1,5 6,7 22 12 35 19 WNW 1019,2 70 0 0,0
14.11.2017 01:00:00 8,1 2,5 5,8 9 5 17 9 WNW 1019,2 70 0 0,0
14.11.2017 00:00:00 7,6 2,0 4,0 10 6 33 18 NW 1019,2 63 0 0,0
13.11.2017 23:00:00 7,8 2,7 5,5 11 6 21 12 WNW 1019,4 67 0 0,0
13.11.2017 22:00:00 7,1 2,5 4,8 10 5 47 25 NW 1019,4 70 0 0,1
13.11.2017 21:00:00 7,9 2,0 5,7 25 14 37 20 NNW 1019,2 70 0 0,0
13.11.2017 20:00:00 7,9 3,8 5,4 16 9 49 26 N 1018,8 70 0 0,0
13.11.2017 19:00:00 7,5 3,1 3,6 9 5 15 8 NNW 1018,4 70 0 0,0

tt = Température de l'air
td = dewpoint
tt 5cm = Température de l'air 5cm
ff = Vitesse du vent
fx = gusts
dd = Direction du vent
ppp = reduced air pressure
vv = visibility
sd = Ensoleillement
rr = Quantités de précipitations

stations d'obs. à proximité